Location: Maccacari
(45.1333°N, 11.1333°E)
Time: 23:07:57
(UTC+00:00)

DMSP B5D2-2 - Pass Details

Date: 18 September 2020
Orbit: 790 x 806 km, 98.3° (Epoch: 25 October)

Event Time Altitude Azimuth Distance (km) Brightness Sun altitude
Rises 18:39:47 0° 18° (NNE) 3,332 7.3 -14.7°
Reaches altitude 10° 18:42:13 10° 25° (NNE) 2,397 6.5 -15.1°
Maximum altitude 18:47:20 47° 99° (E) 1,055 4.3 -15.9°
Drops below altitude 10° 18:52:24 10° 173° (S) 2,377 6.3 -16.8°
Sets 18:54:48 0° 179° (S) 3,302 7.1 -17.2°
